Regional Weather Roundup
Issued by NWS Goodland, KS

Home | Current Version | Previous Version | Graphics & Text | Print | Product List | Glossary On
Versions: 1 2 3 4 5 6 7 8 9 10 11 12 13 14 15 16 17 18 19 20 21 22 23 24 25 26 27 28 29 30 31 32 33 34 35 36 37 38 39 40 41 42 43 44 45 46 47 48 49 50
523
ASUS43 KGLD 300808
RWRGLD

GOODLAND FORECAST AREA HOURLY WEATHER ROUNDUP
NATIONAL WEATHER SERVICE GOODLAND KS
200 AM MDT SUN APR 30 2017

...OFFICIAL OBSERVATIONS...

CITY           SKY/WX    TMP DP  RH WIND       PRES   REMARKS
GOODLAND KS    LGT SNOW  32  30  92 N23       29.89R FOG     WCI  19
HILL CITY KS   RAIN      35  34  96 N25G35    29.84F FOG
IMPERIAL NEB   CLOUDY    39  24  55 N20G28    29.96F
MCCOOK NEB     LGT SNOW  34  33  96 N20       29.91F FOG
AKRON CO       CLOUDY    33  25  72 N21       29.98F
BURLINGTON CO  NOT AVBL
LIMON CO       CLOUDY    29  23  78 NW29G36   29.98F WCI  14
$$

...UNOFFICIAL OBSERVATIONS...

CITY           SKY/WX    TMP DP  RH WIND       PRES   REMARKS
LENORA KS        N/A     33  32  96 MISG        N/A
NORTON KS      LGT RAIN  36  30  80 N20G31    29.84F
SHARON SPRINGS   N/A     32  31  96 N17G24      N/A
TRENTON NEB      N/A     38  32  79 N13         N/A
KIT CARSON CO    N/A     35  26  69 CALM        N/A
YUMA CO        MOCLDY    34  23  64 N16       29.96F
$$




USA.gov is the U.S. government's official web portal to all federal, state and local government web resources and services.